Location: Kelowna
(49.8880°N, 119.4960°W)
Time: 15:52:14
(UTC-07:00)

AO-27 - Pass Details

Date: 09 August 2024
Orbit: 783 x 796 km, 98.8° (Epoch: 14 September)

Event Time Altitude Azimuth Distance (km) Brightness Sun altitude
Exits shadow 21:33:39 - 171° (S) 2,880 10.1 -10.1°
Reaches altitude 10° 21:34:59 10° 173° (S) 2,354 9.7 -10.3°
Maximum altitude 21:40:10 70° 256° (WSW) 847 8.0 -10.9°
Drops below altitude 10° 21:45:25 10° 341° (NNW) 2,378 11.2 -11.5°
Sets 21:47:47 0° 344° (NNW) 3,313 12.0 -11.8°
